Tracking 35331 objects as of 15-Sep-2026
HD Live streaming from Space Station
objects crossing your sky now

SL-4 R/B


SL-4 R/B is no longer on orbit


NORAD ID: 16619
Int'l Code: 1986-020B
Launch date: February 26, 1986
Source: Commonwealth of Independent States (former USSR) (CIS)
Launch site: PLESETSK MISSILE AND SPACE COMPLEX (PKMTR)
Decay date: 1986-03-03

Note: This is a ROCKET BODY
Your satellite tracking list
Your tracking list is empty




NASA's NSSDC Master Catalog

Two Line Element Set (TLE):
1 16619U 86020B   86062.56174031  .21227322 +27411-4 +15739-3 0  9996
2 16619 067.1124 330.4320 0029431 096.1284 266.1964 16.50498449000813
Source of the keplerian elements: AFSPC